Hourly Data Report for August 26, 2021

TORONTO CITY
ONTARIO
Current Station Operator: ECCC - MSC

43°40'00.000" N
79°24'00.000" W
112.50 m
6158355
71508
XTO

Download Data

Hourly Data (August 2021)
Hourly Data Report for August 26, 2021
TIME
LST
Temp Definition
°C
Dew Point Definition
°C
Rel Hum Definition
%
Precip. Amount Definition
mm

Wind Dir Definition
10's deg

Wind Spd Definition
km/h
Visibility Definition
km
Stn Press Definition
kPa
Hmdx Definition


Wind Chill Definition


Weather Definition


00:00 25.2 21.3 79 0.0       100.50 34   LegendNANA
01:00 24.3 21.3 84 0.0       100.50 33   LegendNANA
02:00 24.3 21.6 85 0.0       100.51 33   LegendNANA
03:00 23.8 21.1 85 0.0       100.50 32   LegendNANA
04:00 23.8 20.9 84 0.0       100.51 32   LegendNANA
05:00 23.1 20.9 87 0.0       100.53 31   LegendNANA
06:00 23.2 20.5 85 0.0       100.61 31   LegendNANA
07:00 24.0 20.7 82 0.0       100.64 32   LegendNANA
08:00 25.3 21.0 77 0.0       100.63 34   LegendNANA
09:00 26.8 21.4 72 0.0       100.59 36   LegendNANA
10:00 27.1 21.7 73 0.0       100.65 36   LegendNANA
11:00 28.8 22.2 67 0.0       100.62 38   LegendNANA
12:00 29.7 21.2 60 0.0       100.61 38   LegendNANA
13:00 30.1 20.5 57 0.0       100.59 38   LegendNANA
14:00 31.1 20.0 52 0.0       100.51 39   LegendNANA
15:00 32.1 20.1 49 0.0       100.49 40   LegendNANA
16:00 25.8 19.2 67 0.4       100.50 33   LegendNANA
17:00 26.1 18.0 61 0.0       100.48 32   LegendNANA
18:00 26.8 18.6 61 0.0       100.48 33   LegendNANA
19:00 26.2 20.0 68 0.0       100.57 34   LegendNANA
20:00 25.6 20.6 74 0.0       100.56 34   LegendNANA
21:00 26.0 19.1 66 0.0       100.55 33   LegendNANA
22:00 25.1 19.0 69 0.0       100.53 32   LegendNANA
23:00 24.6 18.9 71 0.0       100.57 31   LegendNANA

Notes on Data Quality.

Legend

  • E = Estimated
  • M = Missing
  • NA = Not Available*
  • [empty] = Indicates an unobserved value
Date modified: